Regional Weather Roundup
Issued by NWS

Home | Current Version | Previous Version | Graphics & Text | Print | Product List | Glossary On
Versions: 1 2 3 4 5 6 7 8 9 10 11 12 13 14 15 16 17 18 19 20 21 22 23 24 25 26 27 28 29 30 31 32 33 34 35 36 37 38 39 40 41 42 43 44 45 46 47 48 49 50
286
ASUS45 KBOU 032007
RWRCO

WEATHER ROUNDUP FOR COLORADO
NATIONAL WEATHER SERVICE DENVER/BOULDER CO
200 PM MDT TUE MAY 03 2016

NOTE: "FAIR" INDICATES FEW OR NO CLOUDS BELOW 12000 FEET WITH NO
SIGNIFICANT WEATHER AND/OR OBSTRUCTIONS TO VISIBILITY.

COZ001>005-013-030-031-032100-
...NORTHWEST COLORADO...

CITY           SKY/WX    TMP DP  RH WIND       PRES   REMARKS
CRAIG          FAIR      63  29  27 SE6       30.26F
HAYDEN         FAIR      61  27  27 W9        30.27F
MEEKER         FAIR      65  25  22 VRB7      30.25F
MOUNT WERNER   NOT AVBL
STEAMBOAT SPGS FAIR      59  25  27 SW5       30.26F
WALDEN         FAIR      54  19  26 N5        30.34S
$$

COZ006>008-011-032100-
...WEST CENTRAL VALLEYS...

CITY           SKY/WX    TMP DP  RH WIND       PRES   REMARKS
GRAND JUNCTION FAIR      68  30  24 NW6       30.18F
MONTROSE       FAIR      65  25  22 NW8       30.23F
EAGLE          SUNNY     61  18  18 CALM      30.26F
RIFLE          FAIR      67  26  21 SE6       30.20F
DELTA          NOT AVBL
NUCLA          NOT AVBL
$$

COZ017>023-064>068-032100-
...SOUTHWEST COLORADO...

CITY           SKY/WX    TMP DP  RH WIND       PRES   REMARKS
DURANGO        FAIR      62  27  26 VRB5      30.22F
CORTEZ         FAIR      66  37  34 SW15      30.20F
PAGOSA SPRINGS FAIR      61  18  18 NW6       30.25S
TELLURIDE      FAIR      56  20  24 NE6       30.33S
WOLF CREEK PAS PTSUNNY   37  10  32 NE10      30.46R
$$

COZ009-010-012-014-032>034-037-058>063-032100-
...CENTRAL COLORADO...

CITY           SKY/WX    TMP DP  RH WIND       PRES   REMARKS
ASPEN          FAIR      59  19  21 W9        30.27S
BUENA VISTA    FAIR      60   8  13 NE15G23   30.28S
COPPER MTN     NOT AVBL
BERTHOUD PASS  FAIR      30  21  69 MISG      30.47R
COTTONWOOD PAS FAIR      54   0  11 CALM      30.36S
GUNNISON       FAIR      59  18  20 SW9       30.28S
KREMMLING      FAIR      61  14  16 NE3       30.29F
LEADVILLE      FAIR      49   5  16 N10       30.34S
MONARCH PASS   FAIR      36  19  51 NE15      30.54R
SALIDA         FAIR      61   9  13 NE5       30.34S
SUNLIGHT       FAIR      45  19  36 CALM      30.46S
WILKERSON PASS FAIR      41  18  38 E8        30.44R
$$

COZ069>075-032100-
...SAN LUIS VALLEY/SANGRE DE CRISTO MOUNTAINS...

CITY           SKY/WX    TMP DP  RH WIND       PRES   REMARKS
ALAMOSA        FAIR      61  19  19 N12       30.27S
LA VETA PASS   PTSUNNY   43  27  52 N5        30.38R
SAGUACHE       FAIR      59  12  15 NE7       30.27F
$$

COZ035-036-038>040-032100-
...NORTHERN COLORADO FRONT RANGE...

CITY           SKY/WX    TMP DP  RH WIND       PRES   REMARKS
DENVER INTL AP FAIR      64  31  28 N15G24    30.22S
DMNS CITY PARK   N/A     64  27  24 NE13G21   30.23S
AURORA         FAIR      63  32  31 N16G22    30.24S
FRONT RANGE AP PTSUNNY   63  30  29 N18G25    30.22F
ERIE MUNI ARPT FAIR      65  28  25 N8G21     30.21F
BOULDER MUN AP FAIR      63  30  29 N3        30.21F
CENTENNIAL     FAIR      61  27  27 N15       30.24F
BROOMFIELD     NOT AVBL
FORT COLLINS   FAIR      66  34  30 N15       30.21F
LONGMONT       FAIR      68  31  25 CALM      30.22F
$$

COZ041-046-047-076>085-087-088-032100-
...PIKES PEAK/PALMER DIVIDE AND SOUTHERN FOOTHILLS...

CITY           SKY/WX    TMP DP  RH WIND       PRES   REMARKS
COLO. SPRINGS  FAIR      61  23  23 N22G32    30.25S
A. F. ACADEMY  FAIR      59  25  27 N18G28    30.25F
SCHRIEVER AFB  NOT AVBL
ELLICOTT       FAIR     N/A N/A N/A N25       30.22S
FALCON         FAIR      58  26  28 NW17G24   30.28S
FORT CARSON    FAIR      64  24  22 N21G30    30.22S
LIMON          FAIR      62  35  36 N24G30    30.19S
MONUMENT HILL  FAIR      52  28  40 N17G25    30.29S
TRINIDAD       FAIR      62  27  26 N10G22    30.22F
$$

COZ042>045-048>051-090-091-032100-
...NORTHEAST COLORADO...

CITY           SKY/WX    TMP DP  RH WIND       PRES   REMARKS
GREELEY ARPT   FAIR      66  36  32 NW15G23   30.19F
AKRON          FAIR      65  28  24 N16G26    30.16S
BURLINGTON     FAIR      64  32  30 N17G25    30.13F
WRAY           NOT AVBL
STERLING       FAIR      68  32  26 N15G23    30.12F
HOLYOKE        NOT AVBL
FORT MORGAN    FAIR      69  30  24 N13G24    30.17S
$$

COZ086-089-092>099-032100-
...SOUTHEAST COLORADO...

CITY           SKY/WX    TMP DP  RH WIND       PRES   REMARKS
PUEBLO         FAIR      70  23  17 N18G35    30.18F
LA JUNTA       FAIR      70  30  22 N20G32    30.16F
LAMAR          FAIR      68  34  28 NE16G26   30.11F
SPRINGFIELD      N/A     64  32  30 N23G41    30.13S
$$




USA.gov is the U.S. government's official web portal to all federal, state and local government web resources and services.